EWG2AC ELLX-EDDH

Flight info

Callsign EWG2AC
Flight time 1h 22m
Altitude 37000
Route DIK N853 HMM M170 BASUM Y850 MUBZI M105 RIBSO RIBSO3P
Aircraft A321/M-SDE3FGHIRWY/LB1

Departure

Time 2026-04-30 19:22
Airport Luxembourg-Findel International Airport (ELLX)

Arrival

Time 2026-04-30 20:44
Airport Hamburg Helmut Schmidt Airport (EDDH)
Time Latitude Longitude Altitude Speed Heading
2026-04-30 17:55 49.63332 6.21643 1219 ft 0 kts 330°
2026-04-30 19:10 49.63322 6.21651 1218 ft 3 kts 330°
2026-04-30 19:10 49.63290 6.21681 1218 ft 3 kts 295°
2026-04-30 19:11 49.63289 6.21699 1218 ft 2 kts 241°
2026-04-30 19:11 49.63299 6.21725 1218 ft 0 kts 240°
2026-04-30 19:14 49.63298 6.21724 1218 ft 1 kts 240°
2026-04-30 19:15 49.63288 6.21697 1218 ft 5 kts 239°
2026-04-30 19:15 49.63265 6.21655 1218 ft 2 kts 257°
2026-04-30 19:15 49.63275 6.21628 1218 ft 5 kts 298°
2026-04-30 19:16 49.63267 6.21568 1218 ft 8 kts 244°
2026-04-30 19:16 49.63226 6.21537 1218 ft 8 kts 165°
2026-04-30 19:16 49.63096 6.21644 1218 ft 9 kts 167°
2026-04-30 19:17 49.63053 6.21569 1218 ft 12 kts 245°
2026-04-30 19:17 49.62962 6.21273 1218 ft 18 kts 244°
2026-04-30 19:17 49.62909 6.21103 1218 ft 18 kts 244°
2026-04-30 19:18 49.62832 6.20857 1218 ft 19 kts 244°
2026-04-30 19:18 49.62709 6.20635 1217 ft 16 kts 216°
2026-04-30 19:18 49.62630 6.20523 1219 ft 15 kts 228°
2026-04-30 19:19 49.62557 6.20396 1219 ft 16 kts 228°
2026-04-30 19:19 49.62485 6.20250 1220 ft 18 kts 238°
2026-04-30 19:19 49.62364 6.19926 1225 ft 17 kts 240°
2026-04-30 19:20 49.62304 6.19765 1226 ft 18 kts 240°
2026-04-30 19:20 49.62245 6.19606 1226 ft 15 kts 240°
2026-04-30 19:20 49.62134 6.19596 1225 ft 11 kts 150°
2026-04-30 19:21 49.62082 6.19654 1225 ft 3 kts 112°
2026-04-30 19:21 49.62106 6.19710 1226 ft 10 kts 59°
2026-04-30 19:22 49.62467 6.20681 1219 ft 122 kts 60°
2026-04-30 19:22 49.64068 6.24958 2790 ft 167 kts 66°
2026-04-30 19:23 49.66165 6.30627 3730 ft 236 kts 66°
2026-04-30 19:24 49.67846 6.35232 5010 ft 256 kts 65°
2026-04-30 19:24 49.68745 6.37653 5723 ft 262 kts 64°
2026-04-30 19:24 49.70596 6.42555 7304 ft 268 kts 61°
2026-04-30 19:25 49.75620 6.46084 9469 ft 298 kts 347°
2026-04-30 19:26 49.78704 6.41941 10788 ft 313 kts 294°
2026-04-30 19:26 49.80478 6.35261 11075 ft 358 kts 291°
2026-04-30 19:26 49.81397 6.31578 11343 ft 373 kts 291°
2026-04-30 19:27 49.83295 6.23992 12506 ft 382 kts 291°
2026-04-30 19:27 49.86234 6.17154 13680 ft 388 kts 320°
2026-04-30 19:28 49.88460 6.14810 14268 ft 388 kts 335°
2026-04-30 19:28 49.93659 6.13001 15376 ft 386 kts
2026-04-30 19:29 49.99055 6.13037 16510 ft 391 kts
2026-04-30 19:29 50.01782 6.13059 17080 ft 393 kts
2026-04-30 19:30 50.10068 6.13112 18673 ft 400 kts
2026-04-30 19:30 50.15676 6.13141 19557 ft 405 kts
2026-04-30 19:31 50.21344 6.13172 20448 ft 410 kts
2026-04-30 19:31 50.24206 6.13190 20896 ft 412 kts
2026-04-30 19:31 50.29974 6.13310 21770 ft 415 kts
2026-04-30 19:32 50.32847 6.13942 22188 ft 416 kts 12°
2026-04-30 19:32 50.35715 6.14665 22627 ft 419 kts 12°
2026-04-30 19:32 50.38601 6.15395 23049 ft 421 kts 12°
2026-04-30 19:32 50.41502 6.16130 23467 ft 424 kts 12°
2026-04-30 19:33 50.44422 6.16867 23877 ft 426 kts 12°
2026-04-30 19:33 50.47356 6.17608 24229 ft 429 kts 12°
2026-04-30 19:33 50.50309 6.18352 24570 ft 431 kts 12°
2026-04-30 19:33 50.53275 6.19104 24919 ft 433 kts 12°
2026-04-30 19:34 50.56253 6.19860 25257 ft 435 kts 12°
2026-04-30 19:34 50.59247 6.20620 25603 ft 437 kts 12°
2026-04-30 19:34 50.65261 6.22159 26288 ft 441 kts 12°
2026-04-30 19:35 50.68278 6.23038 26629 ft 441 kts 17°
2026-04-30 19:35 50.71141 6.24571 26951 ft 440 kts 26°
2026-04-30 19:35 50.73833 6.26840 27268 ft 440 kts 35°
2026-04-30 19:35 50.76260 6.29771 27583 ft 440 kts 44°
2026-04-30 19:36 50.78510 6.33057 27895 ft 442 kts 44°
2026-04-30 19:36 50.80773 6.36358 28210 ft 443 kts 44°
2026-04-30 19:36 50.85319 6.42981 29100 ft 438 kts 44°
2026-04-30 19:37 50.87507 6.46166 30513 ft 413 kts 44°
2026-04-30 19:37 50.89543 6.49132 31954 ft 383 kts 44°
2026-04-30 19:37 50.91435 6.51891 33152 ft 362 kts 44°
2026-04-30 19:37 50.93281 6.54596 33503 ft 363 kts 44°
2026-04-30 19:38 50.95141 6.57337 33619 ft 368 kts 44°
2026-04-30 19:38 50.97018 6.60116 33404 ft 368 kts 44°
2026-04-30 19:38 51.00749 6.65638 33331 ft 366 kts 44°
2026-04-30 19:39 51.04089 6.71675 33334 ft 364 kts 54°
2026-04-30 19:39 51.07140 6.78103 33347 ft 364 kts 53°
2026-04-30 19:40 51.10193 6.84524 33350 ft 364 kts 53°
2026-04-30 19:40 51.13231 6.90953 33350 ft 364 kts 54°
2026-04-30 19:41 51.16274 6.97411 33349 ft 365 kts 53°
2026-04-30 19:41 51.19297 7.03839 33353 ft 365 kts 54°
2026-04-30 19:42 51.22337 7.10324 33358 ft 365 kts 54°
2026-04-30 19:42 51.25370 7.16817 33366 ft 365 kts 53°
2026-04-30 19:43 51.28394 7.23292 33353 ft 363 kts 53°
2026-04-30 19:44 51.32901 7.33005 33363 ft 363 kts 53°
2026-04-30 19:44 51.36276 7.38983 33361 ft 364 kts 40°
2026-04-30 19:45 51.40568 7.43271 33363 ft 366 kts 24°
2026-04-30 19:45 51.45407 7.45883 33364 ft 367 kts 19°
2026-04-30 19:46 51.50286 7.48323 33364 ft 367 kts 19°
2026-04-30 19:46 51.55166 7.50773 33356 ft 367 kts 19°
2026-04-30 19:47 51.60045 7.53225 33358 ft 367 kts 18°
2026-04-30 19:47 51.64920 7.55672 33360 ft 367 kts 19°
2026-04-30 19:48 51.69795 7.58141 33362 ft 367 kts 20°
2026-04-30 19:48 51.74422 7.61545 33370 ft 366 kts 28°
2026-04-30 19:49 51.78960 7.65288 33371 ft 366 kts 28°
2026-04-30 19:49 51.85639 7.71282 33380 ft 366 kts 38°
2026-04-30 19:50 51.89344 7.76921 33382 ft 366 kts 46°
2026-04-30 19:50 51.92890 7.82838 33408 ft 366 kts 46°
2026-04-30 19:51 51.96407 7.88703 33407 ft 365 kts 45°
2026-04-30 19:51 51.99941 7.94623 33403 ft 365 kts 46°
2026-04-30 19:52 52.03461 8.00552 33402 ft 365 kts 45°
2026-04-30 19:52 52.06982 8.06480 33402 ft 365 kts 45°
2026-04-30 19:53 52.10514 8.12427 33397 ft 365 kts 45°
2026-04-30 19:53 52.14041 8.18384 33029 ft 365 kts 46°
2026-04-30 19:54 52.15791 8.21359 32770 ft 363 kts 46°
2026-04-30 19:54 52.17533 8.24322 32507 ft 361 kts 46°
2026-04-30 19:54 52.19333 8.27160 32239 ft 359 kts 39°
2026-04-30 19:54 52.21327 8.29586 31985 ft 357 kts 32°
2026-04-30 19:55 52.23481 8.31577 31743 ft 352 kts 28°
2026-04-30 19:55 52.25629 8.33426 31485 ft 348 kts 28°
2026-04-30 19:55 52.27763 8.35273 31233 ft 346 kts 28°
2026-04-30 19:55 52.29885 8.37117 30990 ft 345 kts 28°
2026-04-30 19:56 52.31998 8.38958 30741 ft 343 kts 28°
2026-04-30 19:56 52.34100 8.40793 30499 ft 342 kts 28°
2026-04-30 19:56 52.36193 8.42622 30218 ft 340 kts 28°
2026-04-30 19:56 52.38277 8.44445 29935 ft 339 kts 28°
2026-04-30 19:57 52.40352 8.46258 29656 ft 337 kts 28°
2026-04-30 19:57 52.42413 8.48063 29384 ft 334 kts 28°
2026-04-30 19:57 52.44454 8.49857 29108 ft 332 kts 28°
2026-04-30 19:57 52.46471 8.51637 28836 ft 328 kts 28°
2026-04-30 19:58 52.48470 8.53402 28563 ft 325 kts 28°
2026-04-30 19:58 52.50457 8.55151 28300 ft 323 kts 28°
2026-04-30 19:58 52.52515 8.56593 28042 ft 322 kts 19°
2026-04-30 19:58 52.54639 8.57735 27769 ft 320 kts 19°
2026-04-30 19:59 52.56752 8.58880 27506 ft 319 kts 19°
2026-04-30 19:59 52.58851 8.60041 27249 ft 317 kts 20°
2026-04-30 19:59 52.62968 8.62447 26732 ft 315 kts 21°
2026-04-30 20:00 52.65025 8.63669 26447 ft 314 kts 21°
2026-04-30 20:00 52.67095 8.64894 26072 ft 311 kts 21°
2026-04-30 20:00 52.69097 8.66072 25704 ft 308 kts 21°
2026-04-30 20:00 52.71107 8.67252 25338 ft 305 kts 21°
2026-04-30 20:01 52.75073 8.69587 24633 ft 300 kts 21°
2026-04-30 20:01 52.77034 8.70743 24280 ft 298 kts 21°
2026-04-30 20:01 52.78983 8.71889 23927 ft 296 kts 21°
2026-04-30 20:02 52.82845 8.74162 23110 ft 293 kts 21°
2026-04-30 20:02 52.84759 8.75294 22710 ft 291 kts 22°
2026-04-30 20:03 52.88559 8.77534 21928 ft 288 kts 22°
2026-04-30 20:03 52.90441 8.78647 21539 ft 287 kts 22°
2026-04-30 20:03 52.92294 8.79748 21426 ft 279 kts 22°
2026-04-30 20:03 52.94123 8.80837 21433 ft 280 kts 22°
2026-04-30 20:04 52.95955 8.81931 21436 ft 280 kts 22°
2026-04-30 20:04 52.97789 8.83024 21436 ft 280 kts 22°
2026-04-30 20:04 52.99625 8.84115 21436 ft 280 kts 22°
2026-04-30 20:05 53.03295 8.86299 21435 ft 280 kts 22°
2026-04-30 20:05 53.05106 8.87376 21436 ft 280 kts 22°
2026-04-30 20:05 53.08778 8.89559 21436 ft 280 kts 22°
2026-04-30 20:06 53.10608 8.90655 21436 ft 280 kts 22°
2026-04-30 20:06 53.12447 8.91757 21435 ft 280 kts 22°
2026-04-30 20:06 53.14281 8.92858 21434 ft 280 kts 22°
2026-04-30 20:06 53.16112 8.93956 21433 ft 280 kts 22°
2026-04-30 20:07 53.17947 8.95055 21433 ft 280 kts 22°
2026-04-30 20:07 53.19782 8.96154 21432 ft 280 kts 22°
2026-04-30 20:07 53.23465 8.98365 21094 ft 282 kts 22°
2026-04-30 20:08 53.25308 8.99474 20726 ft 281 kts 22°
2026-04-30 20:08 53.27132 9.00573 20419 ft 277 kts 22°
2026-04-30 20:08 53.28934 9.01661 20095 ft 274 kts 23°
2026-04-30 20:08 53.30725 9.02746 19748 ft 273 kts 23°
2026-04-30 20:09 53.32508 9.03826 19394 ft 272 kts 23°
2026-04-30 20:09 53.34283 9.04901 19057 ft 271 kts 23°
2026-04-30 20:09 53.37804 9.07035 18374 ft 268 kts 24°
2026-04-30 20:10 53.41288 9.09151 17641 ft 265 kts 24°
2026-04-30 20:10 53.43012 9.10203 17286 ft 264 kts 24°
2026-04-30 20:10 53.44733 9.11250 16937 ft 262 kts 24°
2026-04-30 20:11 53.47577 9.12981 16357 ft 261 kts 24°
2026-04-30 20:11 53.49278 9.14016 16020 ft 260 kts 24°
2026-04-30 20:11 53.50972 9.15048 15681 ft 258 kts 24°
2026-04-30 20:12 53.54348 9.17133 14935 ft 263 kts 24°
2026-04-30 20:12 53.56193 9.18298 14569 ft 305 kts 24°
2026-04-30 20:12 53.58269 9.19616 14291 ft 327 kts 24°
2026-04-30 20:13 53.60424 9.20966 14033 ft 332 kts 24°
2026-04-30 20:13 53.62609 9.22323 13768 ft 339 kts 24°
2026-04-30 20:13 53.64838 9.23706 13507 ft 342 kts 23°
2026-04-30 20:13 53.67072 9.25096 13414 ft 342 kts 23°
2026-04-30 20:14 53.69306 9.26490 13314 ft 343 kts 23°
2026-04-30 20:14 53.71542 9.27886 13050 ft 342 kts 23°
2026-04-30 20:14 53.73741 9.29256 12793 ft 331 kts 23°
2026-04-30 20:14 53.75859 9.30579 12544 ft 318 kts 23°
2026-04-30 20:15 53.77887 9.31856 12421 ft 303 kts 24°
2026-04-30 20:15 53.79803 9.33066 12427 ft 285 kts 24°
2026-04-30 20:15 53.81595 9.34241 12432 ft 267 kts 30°
2026-04-30 20:15 53.83002 9.36052 12438 ft 245 kts 53°
2026-04-30 20:16 53.83837 9.38499 12434 ft 239 kts 73°
2026-04-30 20:16 53.84071 9.41259 12434 ft 238 kts 94°
2026-04-30 20:16 53.83694 9.43978 12432 ft 240 kts 113°
2026-04-30 20:16 53.82746 9.46305 12443 ft 245 kts 133°
2026-04-30 20:17 53.81307 9.47903 12432 ft 252 kts 155°
2026-04-30 20:17 53.79572 9.48445 12436 ft 260 kts 179°
2026-04-30 20:17 53.77797 9.47751 12444 ft 267 kts 202°
2026-04-30 20:17 53.76143 9.46281 12443 ft 269 kts 206°
2026-04-30 20:18 53.74518 9.44693 12442 ft 270 kts 207°
2026-04-30 20:18 53.72904 9.43066 12441 ft 270 kts 208°
2026-04-30 20:18 53.71290 9.41438 12440 ft 270 kts 207°
2026-04-30 20:18 53.69695 9.39754 12430 ft 272 kts 217°
2026-04-30 20:19 53.68515 9.37329 12432 ft 274 kts 243°
2026-04-30 20:19 53.68031 9.34237 12437 ft 275 kts 270°
2026-04-30 20:19 53.68359 9.31095 12437 ft 273 kts 296°
2026-04-30 20:19 53.69410 9.28494 12439 ft 267 kts 321°
2026-04-30 20:20 53.70964 9.26885 12432 ft 260 kts 346°
2026-04-30 20:20 53.72720 9.26479 12432 ft 253 kts
2026-04-30 20:20 53.74406 9.27256 12430 ft 246 kts 30°
2026-04-30 20:20 53.75903 9.28589 12430 ft 246 kts 33°
2026-04-30 20:21 53.77400 9.30060 12435 ft 246 kts 34°
2026-04-30 20:21 53.78871 9.31544 12437 ft 246 kts 34°
2026-04-30 20:21 53.80342 9.33031 12439 ft 246 kts 34°
2026-04-30 20:21 53.81782 9.34585 12433 ft 244 kts 45°
2026-04-30 20:22 53.82746 9.36825 12432 ft 239 kts 71°
2026-04-30 20:22 53.82992 9.39567 12435 ft 238 kts 96°
2026-04-30 20:22 53.82467 9.42209 12433 ft 241 kts 122°
2026-04-30 20:22 53.81257 9.44179 12435 ft 247 kts 148°
2026-04-30 20:23 53.79583 9.44972 12442 ft 258 kts 176°
2026-04-30 20:23 53.77825 9.44248 12437 ft 267 kts 205°
2026-04-30 20:23 53.76204 9.42675 12445 ft 270 kts 207°
2026-04-30 20:23 53.74588 9.41067 12432 ft 269 kts 207°
2026-04-30 20:24 53.72980 9.39467 12432 ft 268 kts 207°
2026-04-30 20:24 53.71399 9.37791 12435 ft 270 kts 218°
2026-04-30 20:24 53.70331 9.35207 12433 ft 273 kts 252°
2026-04-30 20:24 53.70221 9.32040 12436 ft 273 kts 286°
2026-04-30 20:25 53.72609 9.27636 12437 ft 258 kts 349°
2026-04-30 20:25 53.74353 9.27516 12437 ft 249 kts 18°
2026-04-30 20:26 53.77411 9.30094 12040 ft 245 kts 34°
2026-04-30 20:26 53.80330 9.33019 11549 ft 243 kts 34°
2026-04-30 20:26 53.81743 9.34546 11429 ft 240 kts 45°
2026-04-30 20:27 53.82915 9.39524 11436 ft 236 kts 97°
2026-04-30 20:27 53.81124 9.43997 11437 ft 245 kts 151°
2026-04-30 20:28 53.77747 9.43756 11442 ft 263 kts 207°
2026-04-30 20:28 53.74587 9.40608 11435 ft 263 kts 207°
2026-04-30 20:29 53.71493 9.37363 11430 ft 264 kts 222°
2026-04-30 20:30 53.71475 9.29043 11432 ft 260 kts 323°
2026-04-30 20:30 53.76152 9.29233 10978 ft 235 kts 53°
2026-04-30 20:31 53.76773 9.37076 10105 ft 231 kts 94°
2026-04-30 20:32 53.76395 9.45135 9182 ft 227 kts 98°
2026-04-30 20:32 53.74460 9.49041 8568 ft 234 kts 158°
2026-04-30 20:33 53.72883 9.49768 8258 ft 236 kts 163°
2026-04-30 20:33 53.69692 9.50932 7677 ft 234 kts 164°
2026-04-30 20:33 53.68105 9.51494 7373 ft 232 kts 164°
2026-04-30 20:34 53.64957 9.52600 6751 ft 230 kts 164°
2026-04-30 20:34 53.61849 9.53699 6083 ft 227 kts 164°
2026-04-30 20:35 53.60312 9.54251 5772 ft 225 kts 164°
2026-04-30 20:35 53.58789 9.54801 5457 ft 223 kts 164°
2026-04-30 20:35 53.55778 9.55913 4800 ft 220 kts 164°
2026-04-30 20:36 53.54289 9.56486 4470 ft 219 kts 164°
2026-04-30 20:36 53.52787 9.56833 4135 ft 220 kts 185°
2026-04-30 20:36 53.50400 9.53818 4002 ft 227 kts 232°
2026-04-30 20:37 53.49434 9.51718 3997 ft 226 kts 219°
2026-04-30 20:37 53.48081 9.50590 3998 ft 220 kts 185°
2026-04-30 20:37 53.46580 9.50930 3998 ft 216 kts 154°
2026-04-30 20:37 53.45345 9.52278 3998 ft 215 kts 135°
2026-04-30 20:38 53.44433 9.54248 4000 ft 215 kts 117°
2026-04-30 20:38 53.43959 9.56612 4001 ft 215 kts 98°
2026-04-30 20:38 53.43986 9.59150 4002 ft 217 kts 79°
2026-04-30 20:39 53.45441 9.63503 4006 ft 220 kts 51°
2026-04-30 20:39 53.46433 9.65473 4008 ft 221 kts 52°
2026-04-30 20:39 53.47422 9.67443 4009 ft 221 kts 52°
2026-04-30 20:40 53.49309 9.71213 3896 ft 204 kts 52°
2026-04-30 20:40 53.50218 9.73032 3651 ft 203 kts 52°
2026-04-30 20:40 53.51123 9.74845 3399 ft 202 kts 52°
2026-04-30 20:41 53.52920 9.78447 2855 ft 200 kts 52°
2026-04-30 20:41 53.53816 9.80243 2573 ft 199 kts 52°
2026-04-30 20:41 53.54705 9.82028 2316 ft 198 kts 52°
2026-04-30 20:41 53.55578 9.83783 2052 ft 193 kts 52°
2026-04-30 20:42 53.56419 9.85471 1787 ft 184 kts 52°
2026-04-30 20:42 53.57213 9.87068 1545 ft 171 kts 52°
2026-04-30 20:42 53.58587 9.89834 1123 ft 139 kts 53°
2026-04-30 20:43 53.59194 9.91058 923 ft 137 kts 52°
2026-04-30 20:43 53.59809 9.92297 757 ft 138 kts 52°
2026-04-30 20:43 53.60420 9.93528 561 ft 137 kts 51°
2026-04-30 20:44 53.61628 9.95971 213 ft 135 kts 51°
2026-04-30 20:44 53.62222 9.97172 42 ft 128 kts 51°
2026-04-30 20:44 53.62983 9.98714 45 ft 45 kts 51°
2026-04-30 20:45 53.63091 9.99145 46 ft 8 kts 94°
2026-04-30 20:45 53.63082 9.99249 44 ft 7 kts 102°
2026-04-30 20:45 53.63075 9.99334 47 ft 8 kts 81°
2026-04-30 20:46 53.63190 9.99607 47 ft 3 kts 50°
2026-04-30 20:46 53.63209 9.99647 48 ft 7 kts 50°
2026-04-30 20:47 53.63130 9.99841 48 ft 17 kts 153°
2026-04-30 20:47 53.63021 9.99935 48 ft 14 kts 153°
2026-04-30 20:48 53.62902 10.00072 48 ft 7 kts 81°
2026-04-30 20:48 53.62944 10.00130 48 ft 10 kts 32°
2026-04-30 20:48 53.63011 10.00201 48 ft 13 kts 33°
2026-04-30 20:48 53.63069 10.00260 45 ft 8 kts 20°
2026-04-30 20:49 53.63078 10.00265 47 ft 0 kts 27°
2026-04-30 20:49 53.63078 10.00274 47 ft 1 kts 82°
2026-04-30 20:49 53.63076 10.00318 48 ft 6 kts 93°
2026-04-30 20:50 53.63074 10.00369 48 ft 0 kts 93°